Flag for Norway Weather past 2 weeks in Kleppestø, Norway

Now
53 °F

Cool.


Feels Like: 49 °F
Forecast: 52 / 54 °F
Wind: 9 mph from South

Location: Bergen / Florida

Current Time: Oct 25, 2014 at 11:19:46 PM

Latest Report: Oct 25, 2014 at 10:00 PM


Visibility: N/A

Pressure: 29.61 "Hg

Humidity: 80%

Dew point: 47 °F

Location of KleppestøLocation

Historic Weather in Kleppestø — Graph

°F

Kleppestø temperature yesterday

Maximum temperature yesterday: 55 °F (at 3:00 PM)
Minimum temperature yesterday: 50 °F (at 11:00 PM)
Average temperature yesterday: 52 °F

Past Weeks' High & Low Weather Summary

 TemperatureHumidityPressure
High58 °F (Oct 19, 1:00 PM)91% (Oct 14, 10:00 AM)29.98 "Hg (Oct 14, 10:00 AM)
Low36 °F (Oct 16, 4:00 AM)34% (Oct 16, 4:00 PM)29.18 "Hg (Oct 21, 2:00 PM)
Average49 °F78%29.72 "Hg
* Reported Oct 10 10:00 PM — Oct 25 10:00 PM, Kleppestø, Weather by CustomWeather, © 2014

Note: Actual official high and low records may vary slightly from our data, if they occured in-between our weather recording intervals... More about our weather records

Advertising

Kleppestø weather history for previous 24 hours

 ConditionsComfort  
Time TempWeatherWind HumidityBarometerVisibility
10:00 PM
Oct 25
53 °FCool.9 mph80%29.61 "HgN/A
9:00 PM52 °FCool.8 mph83%29.61 "HgN/A
8:00 PM52 °FLight rain. Low clouds.7 mph84%29.61 "Hg9 mi
7:00 PM51 °FCool.8 mph85%29.62 "HgN/A
6:00 PM50 °FCool.7 mph84%29.62 "HgN/A
5:00 PM50 °FLight rain. Low clouds.6 mph82%29.63 "Hg12 mi
4:00 PM51 °FCool.9 mph76%29.64 "HgN/A
3:00 PM51 °FCool.8 mph79%29.65 "HgN/A
2:00 PM51 °FSprinkles. Overcast.6 mph78%29.66 "Hg17 mi
1:00 PM51 °FCool.7 mph76%29.67 "HgN/A
12:00 PM50 °FCool.6 mph81%29.67 "HgN/A
11:00 AM50 °FSprinkles. Overcast.5 mph80%29.68 "Hg9 mi
10:00 AM50 °FCool.6 mph80%29.69 "HgN/A
9:00 AM50 °FCool.5 mph83%29.68 "HgN/A
8:00 AM49 °FPassing clouds.5 mph83%29.67 "Hg16 mi
7:00 AM49 °FCool.5 mph85%29.67 "HgN/A
6:00 AM49 °FCool.5 mph85%29.67 "HgN/A
5:00 AM48 °FCool.5 mph85%29.68 "HgN/A
4:00 AM49 °FCool.5 mph85%29.68 "HgN/A
3:00 AM48 °FCool.5 mph85%29.68 "HgN/A
2:00 AM48 °FCool.5 mph84%29.68 "HgN/A
1:00 AM48 °FCool.2 mph84%29.68 "HgN/A
12:00 AM49 °FCool.3 mph80%29.69 "HgN/A
11:00 PM
Oct 24
50 °FOvercast.3 mph77%29.69 "Hg16 mi
Weather by CustomWeather, © 2014

See weather overviewHow to use our weather pages